STARLINK-11625, 63109

Orbit data source: Space-Track

STARLINK-11625, 63109 is a payload satellite owned by SpaceX/Seattle (US) in LEO that was launched on Thu, 27 Feb 2025 UTC via an FALCON 9 launch vehicle from the Air Force Eastern Test Range (AFETR). Payload-class satellites include a variety of spacecraft equipped with specific instruments for various scientific and technological missions. These include communications satellites like Starlink; space stations such as the ISS; scientific satellites like the Hubble; Earth observation satellites from companies like Planet Labs, Umbra, and HawkEye 360; GPS; miniature CubeSats for education and research; and military/defense satellites.

Loading next visibility...
Identifier
63109, 2025-039F
Orbit
LEO
Country
Flag of USUS
Related business
Manufacturer
SpaceX/Seattle
Mission
Operational Commercial Communications
Bus & Motor
STARLINK V2MD, Unknown motor
Mass
960 kg wet, ~910 kg dry
Launch date (UTC)
2025-02-27 (7 months ago)
Launch vehicle
FALCON 9
Launch site
Air Force Eastern Test Range (AFETR)
Object type
Payload
Rocket body
Debris
Shape & HBR
Box + 2 Pan, 14.5 m
Radar Cross Section
36.964 m², Large (>1 m²)

Expand to show TLE details & history
Last TLE update: 22 hours ago

TLE from 22 hours ago
0 STARLINK-11625
1 63109U 25039F   25257.37730793  .00140847  00000-0  10817-2 0  9991
2 63109  42.9984 219.8195 0000834 285.9832  74.0943 15.70861660 31881
Epoch: 2025-09-14T09:03Z
TLE epoch observation values (Epoch: 2025-09-14T09:03:19.405Z)
Latitude
-0.00005°
Longitude
90.3914°
Altitude
356.05 km
Speed
7.697 km/s
True Right ascension
14h 39m 16s
True Declination
0° 00' 00"
Sunlit
Object was in daylight at epoch
Visualization orbit readout
Latitude
Unknown
Longitude
Unknown
Altitude
Unknown
Speed
Unknown
Apparent Right ascension
Unknown
Apparent Declination
Unknown
Sunlit
N/A
Visualization observer readout
Local Sidereal Time
23:29:45
Azimuth
Unknown
Elevation
Unknown
Doppler factor
Unknown
Orbital elements
Apogee altitude
358.977 km
Perigee altitude
357.853 km
Semi-major axis
6,736.552 km
Eccentricity
0.00008
Inclination
42.9984°
RAAN
219.8195°
Arg. of periapsis
285.9832°
True anomaly
74.10349°
Mean anomaly
74.0943°
Eccentric anomaly
74.0989°
Mean motion
3.92542 °/min
Orbital period
91.71 mins
BSTAR
0.0010817
Loading maneuver chart data...
Computing Atmospheric mass density...
Loading historical data...
Loading historical data...
Loading historical data...
Loading historical data...
Loading historical data...
Loading historical data...
Loading historical data...

Documentation

Showing up to 5 results
|